Location: Celina Elementary School
(33.3262°N, 96.7767°W)
Time: 07:24:32
(UTC+00:00)

H-2A R/B - Pass Details

Date: 26 November 2021
Orbit: 577 x 654 km, 98.5° (Epoch: 19 January)

Event Time Altitude Azimuth Distance (km) Brightness Sun altitude
Rises 12:34:52 0° 160° (SSE) 2,789 6.1 -7.4°
Reaches altitude 10° 12:37:00 10° 158° (SSE) 1,901 5.2 -6.9°
Maximum altitude 12:41:05 68° 75° (ENE) 640 2.4 -6.1°
Drops below altitude 10° 12:45:18 10° 353° (N) 1,953 4.3 -5.3°
Sets 12:47:30 0° 351° (N) 2,873 5.2 -4.9°
